Location: Bothwell
(42.3833°S, 147.0000°E)
Time: 03:47:15
(UTC+11:00)

LilacSat-2 - Pass Details

Date: 02 October 2022
Orbit: 504 x 526 km, 97.5° (Epoch: 30 November)

Event Time Altitude Azimuth Distance (km) Brightness Sun altitude
Rises 05:40:34 0° 34° (NE) 2,666 ? -12.4°
Reaches altitude 10° 05:42:47 10° 43° (NE) 1,784 ? -12.0°
Maximum altitude 05:46:18 34° 109° (ESE) 889 ? -11.4°
Drops below altitude 10° 05:49:50 10° 174° (S) 1,800 ? -10.8°
Sets 05:52:05 0° 183° (S) 2,695 ? -10.4°
